Stations météo

réclame
Mon MeteoGroup
Milford-Haven, Grande-Bretagne (3604): Température de l'air & dewpoint: 14.04.2018 21:00:00 - 20.04.2018 21:00:00 (BST)Milford-Haven, Grande-Bretagne (3604): Température de l'air -20cm & Température de l'air -100cm: 14.04.2018 21:00:00 - 20.04.2018 21:00:00 (BST)Milford-Haven, Grande-Bretagne (3604): Vitesse du vent & gusts: 14.04.2018 21:00:00 - 20.04.2018 21:00:00 (BST)Milford-Haven, Grande-Bretagne (3604): Direction du vent: 14.04.2018 21:00:00 - 20.04.2018 21:00:00 (BST)Milford-Haven, Grande-Bretagne (3604): reduced air pressure: 14.04.2018 21:00:00 - 20.04.2018 21:00:00 (BST)Milford-Haven, Grande-Bretagne (3604): visibility: 14.04.2018 21:00:00 - 20.04.2018 21:00:00 (BST)Milford-Haven, Grande-Bretagne (3604): Quantités de précipitations: 14.04.2018 21:00:00 - 20.04.2018 21:00:00 (BST)
Date & Time tt [°C] td [°C] tt -20cm [°C] tt -100cm [°C] ff [km/h] ff [knt] fx [km/h] fx [knt] dd ppp [hPa] vv [km] rr [mm]
20.04.2018 21:00:00 - - - - - - - - - - - -
20.04.2018 20:00:00 11,0 7,6 - - 11 6 - - NNW 1024,6 40 0,0
20.04.2018 19:00:00 12,7 8,4 - - 13 7 - - NNW 1024,7 40 0,0
20.04.2018 18:00:00 13,5 7,8 - - 15 8 - - NW 1024,9 45 0,0
20.04.2018 17:00:00 15,9 9,3 - - 15 8 - - NW 1024,9 45 0,0
20.04.2018 16:00:00 16,5 9,5 - - 13 7 - - NNW 1025,3 45 0,0
20.04.2018 15:00:00 16,2 10,5 - - 13 7 - - WNW 1025,6 40 0,0
20.04.2018 14:00:00 16,1 10,6 - - 8 4 - - NW 1025,7 45 0,0
20.04.2018 13:00:00 14,5 9,8 - - 11 6 - - NW 1026,3 30 0,0
20.04.2018 12:00:00 12,9 9,8 - - 11 6 - - NW 1026,4 24 0,0
20.04.2018 11:00:00 10,9 10,2 - - 8 4 - - NNW 1026,5 21 0,0
20.04.2018 10:00:00 9,2 9,1 10,9 10,0 5 3 - - NW 1026,2 14 0,0
20.04.2018 09:00:00 7,7 7,5 - - 11 6 - - NW 1025,9 0,4 0,0
20.04.2018 08:00:00 7,2 7,1 - - 9 5 - - WNW 1025,8 0,4 0,0
20.04.2018 07:00:00 6,5 6,3 - - 4 2 - - WNW 1025,5 0,1 0,0
20.04.2018 06:00:00 6,7 6,4 - - 8 4 - - NW 1025,2 0,4 0,0
20.04.2018 05:00:00 7,0 6,8 - - 8 4 - - NNW 1025,2 0,3 0,0
20.04.2018 04:00:00 7,9 7,7 - - 5 3 - - NNW 1025,0 0,2 0,0
20.04.2018 03:00:00 7,4 7,2 - - 8 4 - - N 1025,2 4,0 0,0
20.04.2018 02:00:00 7,8 7,5 - - 9 5 - - N 1025,4 0,3 0,0
20.04.2018 01:00:00 7,8 7,4 - - 2 1 - - N 1025,8 0,1 0,0
20.04.2018 00:00:00 7,4 6,9 - - 5 3 - - NW 1025,7 4,6 0,0
19.04.2018 23:00:00 8,7 8,1 - - 11 6 - - NW 1025,5 7 0,0
19.04.2018 22:00:00 8,9 8,1 - - 5 3 - - NW 1025,4 11 0,0
19.04.2018 21:00:00 10,0 8,4 - - 4 2 - - WSW 1025,6 22 0,0
19.04.2018 20:00:00 11,2 8,9 - - 2 1 - - SSW 1025,1 35 0,0
19.04.2018 19:00:00 12,2 9,0 - - 5 3 - - WSW 1024,8 40 0,0
19.04.2018 18:00:00 12,7 10,1 - - 5 3 - - W 1025,1 29 0,0
19.04.2018 17:00:00 12,7 10,4 - - 8 4 - - W 1025,1 17 0,0
19.04.2018 16:00:00 12,8 10,9 - - 5 3 - - WSW 1025,3 20 0,0
19.04.2018 15:00:00 13,2 11,0 - - 11 6 - - SSW 1025,4 21 0,0
19.04.2018 14:00:00 12,9 11,1 - - 8 4 - - SW 1025,0 21 0,0
19.04.2018 13:00:00 12,3 10,7 - - 11 6 - - SSW 1024,9 19 0,0
19.04.2018 12:00:00 12,4 10,9 - - 13 7 - - SSW 1024,7 9 0,0
19.04.2018 11:00:00 12,3 11,6 - - 13 7 - - SSW 1024,5 11 0,0
19.04.2018 10:00:00 11,5 11,0 11,0 9,7 9 5 - - S 1024,1 4,9 0,0
19.04.2018 09:00:00 10,7 10,1 - - 5 3 - - SE 1023,7 4,5 -
19.04.2018 08:00:00 10,4 9,4 - - 5 3 - - S 1023,4 6 -
19.04.2018 07:00:00 10,2 8,9 - - 5 3 - - SW 1022,6 9 -
19.04.2018 06:00:00 10,2 8,7 - - 9 5 - - S 1022,1 17 -
19.04.2018 05:00:00 9,9 8,6 - - 11 6 - - ESE 1021,7 14 -
19.04.2018 04:00:00 9,8 8,5 - - 9 5 - - SE 1021,6 14 -
19.04.2018 03:00:00 10,5 8,6 - - 11 6 - - ESE 1021,3 16 -
19.04.2018 02:00:00 11,2 8,7 - - 9 5 - - SSE 1021,8 19 0,0
19.04.2018 01:00:00 11,8 8,8 - - 11 6 - - SSE 1021,8 20 0,0
19.04.2018 00:00:00 12,4 9,0 - - 16 9 - - SSE 1021,3 24 0,0
18.04.2018 23:00:00 12,0 9,1 - - 15 8 - - SSE 1021,4 23 0,0
18.04.2018 22:00:00 11,5 8,6 - - 13 7 - - SSW 1021,5 24 0,0
18.04.2018 21:00:00 12,3 9,1 - - 24 13 46 25 S 1020,7 18 0,0
18.04.2018 20:00:00 15,6 9,5 - - 28 15 50 27 SSE 1020,2 30 0,0
18.04.2018 19:00:00 16,6 9,6 - - 37 20 57 31 SE 1020,1 30 0,0
18.04.2018 18:00:00 17,6 9,8 - - 37 20 55 30 SE 1020,0 40 0,0
18.04.2018 17:00:00 18,2 10,1 - - 41 22 57 31 SE 1019,9 45 0,0
18.04.2018 16:00:00 17,5 10,9 - - 35 19 50 27 SE 1020,9 35 0,0
18.04.2018 15:00:00 17,9 11,5 - - 35 19 55 30 SE 1021,8 35 0,0
18.04.2018 14:00:00 17,3 11,6 - - 29 16 46 25 SE 1022,3 35 0,0
18.04.2018 13:00:00 16,7 11,1 - - 29 16 48 26 SE 1022,6 30 0,0
18.04.2018 12:00:00 14,9 11,1 - - 26 14 48 26 SE 1023,0 24 0,0
18.04.2018 11:00:00 13,7 10,9 - - 26 14 52 28 S 1023,1 22 0,0
18.04.2018 10:00:00 12,0 11,0 10,2 9,7 29 16 50 27 S 1023,0 15 0,0
18.04.2018 09:00:00 10,9 10,6 - - 31 17 50 27 S 1023,0 7 0,0
18.04.2018 08:00:00 10,6 10,4 - - 34 18 50 27 S 1022,6 5 0,2
18.04.2018 07:00:00 10,4 10,3 - - 37 20 52 28 S 1021,7 3,1 0,0
18.04.2018 06:00:00 10,4 10,2 - - 37 20 54 29 S 1021,0 3,2 0,0
18.04.2018 05:00:00 10,4 10,2 - - 37 20 57 31 S 1020,5 4,4 0,2
18.04.2018 04:00:00 10,6 10,5 - - 41 22 57 31 S 1019,9 5 0,0
18.04.2018 03:00:00 10,6 10,5 - - 41 22 57 31 S 1019,5 3,3 0,0
18.04.2018 02:00:00 11,0 10,8 - - 41 22 57 31 S 1019,1 3,3 1,2
18.04.2018 01:00:00 10,9 10,8 - - 37 20 55 30 S 1018,9 1,7 0,0
18.04.2018 00:00:00 10,4 10,2 - - 26 14 48 26 S 1018,8 0,1 0,0
17.04.2018 23:00:00 10,4 10,2 - - 34 18 48 26 S 1018,4 0,1 0,0
17.04.2018 22:00:00 10,1 9,9 - - 29 16 50 27 S 1018,0 0,1 0,0
17.04.2018 21:00:00 10,5 10,1 - - 37 20 50 27 S 1017,3 2,8 0,0
17.04.2018 20:00:00 10,5 9,8 - - 35 19 50 27 S 1016,4 8 0,0
17.04.2018 19:00:00 10,5 9,5 - - 35 19 50 27 S 1015,6 8 0,0
17.04.2018 18:00:00 10,8 9,5 - - 31 17 48 26 S 1015,4 9 0,0
17.04.2018 17:00:00 10,9 9,6 - - 34 18 52 28 S 1014,7 10 0,0
17.04.2018 16:00:00 10,8 9,6 - - 37 20 55 30 S 1014,3 16 0,0
17.04.2018 15:00:00 10,6 9,6 - - 39 21 63 34 S 1013,9 24 0,0
17.04.2018 14:00:00 10,3 9,7 - - 37 20 61 33 S 1013,2 22 0,0
17.04.2018 13:00:00 10,4 9,8 - - 37 20 59 32 S 1012,4 15 0,2
17.04.2018 12:00:00 10,4 10,1 - - 42 23 59 32 S 1011,6 14 0,0
17.04.2018 11:00:00 9,9 9,7 - - 29 16 57 31 SSW 1011,4 9 0,6
17.04.2018 10:00:00 9,8 9,6 10,2 9,7 41 22 81 44 SSW 1010,6 2,5 0,6
17.04.2018 09:00:00 9,9 9,6 - - 52 28 74 40 S 1009,1 5 0,8
17.04.2018 08:00:00 9,7 9,3 - - 50 27 80 43 S 1009,0 4,5 0,6
17.04.2018 07:00:00 9,5 9,0 - - 54 29 83 45 S 1008,4 2,7 0,2
17.04.2018 06:00:00 9,6 8,9 - - 55 30 81 44 S 1007,6 3,3 1,2
17.04.2018 05:00:00 10,1 8,8 - - 46 25 68 37 S 1007,7 1,7 0,4
17.04.2018 04:00:00 10,6 8,6 - - 42 23 74 40 S 1007,8 9 0,0
17.04.2018 03:00:00 10,5 8,5 - - 42 23 70 38 S 1007,9 12 0,0
17.04.2018 02:00:00 10,7 8,5 - - 42 23 70 38 S 1008,3 11 0,0
17.04.2018 01:00:00 10,5 8,4 - - 41 22 76 41 S 1008,5 12 0,0
17.04.2018 00:00:00 10,4 8,4 - - 42 23 70 38 SSE 1008,5 13 0,0
16.04.2018 23:00:00 10,3 8,3 - - 44 24 68 37 SSE 1008,8 14 0,0
16.04.2018 22:00:00 10,3 8,2 - - 44 24 65 35 SSE 1009,1 16 0,0
16.04.2018 21:00:00 10,0 8,2 - - 39 21 61 33 SSE 1009,6 16 0,0
16.04.2018 20:00:00 9,8 8,3 - - 37 20 55 30 SSE 1009,9 6 0,4
16.04.2018 19:00:00 9,6 8,3 - - 29 16 50 27 S 1010,1 13 0,4
16.04.2018 18:00:00 9,7 7,7 - - 28 15 54 29 S 1010,1 9 0,2
16.04.2018 17:00:00 10,8 6,7 - - 34 18 57 31 S 1010,1 21 0,0
16.04.2018 16:00:00 11,0 6,7 - - 39 21 57 31 S 1010,4 25 0,0
16.04.2018 15:00:00 11,4 6,2 - - 39 21 61 33 S 1010,4 27 0,0
16.04.2018 14:00:00 11,7 6,4 - - 42 23 61 33 S 1010,0 27 0,0
16.04.2018 13:00:00 11,9 6,6 - - 41 22 57 31 S 1010,1 26 0,0
16.04.2018 12:00:00 11,4 7,5 - - 37 20 52 28 S 1010,5 22 0,0
16.04.2018 11:00:00 10,9 7,5 - - 35 19 50 27 S 1010,3 23 0,0
16.04.2018 10:00:00 11,0 7,8 10,4 9,5 28 15 - - S 1009,7 17 0,0
16.04.2018 09:00:00 10,3 7,6 - - 24 13 - - SSW 1009,4 16 0,0
16.04.2018 08:00:00 8,7 5,8 - - 18 10 - - SSW 1009,1 26 0,0
16.04.2018 07:00:00 8,5 7,3 - - 22 12 - - SSW 1008,3 12 0,0
16.04.2018 06:00:00 8,4 6,9 - - 22 12 - - SSW 1007,7 12 0,0
16.04.2018 05:00:00 8,5 7,0 - - 16 9 - - SW 1007,3 17 0,0
16.04.2018 04:00:00 8,4 7,1 - - 18 10 - - SW 1007,0 14 0,0
16.04.2018 03:00:00 8,9 7,3 - - 18 10 - - SW 1006,6 15 0,0
16.04.2018 02:00:00 9,0 7,3 - - 18 10 - - SW 1006,2 15 0,0
16.04.2018 01:00:00 8,9 7,5 - - 22 12 - - SW 1005,5 15 0,0
16.04.2018 00:00:00 9,1 7,9 - - 24 13 - - SW 1005,0 13 0,0
15.04.2018 23:00:00 9,2 8,0 - - 24 13 - - SSW 1004,6 13 0,0
15.04.2018 22:00:00 9,2 8,2 - - 22 12 - - SSW 1004,1 12 0,0
15.04.2018 21:00:00 9,2 8,3 - - 22 12 - - SSW 1003,5 12 0,0
15.04.2018 20:00:00 9,4 8,7 - - 24 13 - - SSW 1002,9 11 0,0
15.04.2018 19:00:00 9,6 8,9 - - 26 14 - - SSW 1002,3 1,9 0,0
15.04.2018 18:00:00 9,9 9,0 - - 26 14 48 26 S 1001,7 6 0,0
15.04.2018 17:00:00 11,4 9,1 - - 29 16 46 25 S 1001,6 16 0,0
15.04.2018 16:00:00 11,8 9,4 - - 31 17 50 27 S 1001,9 18 0,0
15.04.2018 15:00:00 12,1 9,5 - - 34 18 61 33 S 1002,2 24 0,0
15.04.2018 14:00:00 11,8 9,4 - - 35 19 54 29 SSE 1002,2 26 0,2
15.04.2018 13:00:00 10,5 9,3 - - 35 19 54 29 SE 1002,5 23 0,8
15.04.2018 12:00:00 10,7 9,6 - - 35 19 54 29 SE 1002,9 22 0,2
15.04.2018 11:00:00 10,2 9,1 - - 35 19 54 29 SE 1003,1 11 0,4
15.04.2018 10:00:00 9,2 8,6 10,5 9,4 34 18 54 29 SE 1003,7 7 0,0
15.04.2018 09:00:00 8,9 8,2 - - 35 19 54 29 SE 1004,1 6 0,4
15.04.2018 08:00:00 8,7 8,2 - - 37 20 52 28 SE 1004,7 3,5 1,0
15.04.2018 07:00:00 8,6 8,0 - - 37 20 48 26 ESE 1005,2 3,3 0,8
15.04.2018 06:00:00 8,7 7,8 - - 31 17 - - SE 1006,0 3,9 0,2
15.04.2018 05:00:00 8,7 7,8 - - 31 17 - - SE 1006,7 5 0,0
15.04.2018 04:00:00 8,5 7,8 - - 28 15 - - ESE 1007,4 5 0,0
15.04.2018 03:00:00 8,6 7,7 - - 22 12 - - SE 1008,5 5 0,0
15.04.2018 02:00:00 8,4 7,7 - - 22 12 - - SE 1009,2 4,1 0,0
15.04.2018 01:00:00 8,6 7,7 - - 21 11 - - SE 1009,7 4,5 0,0
15.04.2018 00:00:00 8,9 8,3 - - 18 10 - - SSE 1010,3 3,7 0,0
14.04.2018 23:00:00 9,2 8,3 - - 21 11 - - S 1011,1 3,8 0,0
14.04.2018 22:00:00 10,3 8,3 - - 16 9 - - S 1011,7 8 0,0
14.04.2018 21:00:00 10,4 8,1 - - 18 10 - - SE 1012,0 11 0,0

tt = Température de l'air
td = dewpoint
tt -20cm = Température de l'air -20cm
tt -100cm = Température de l'air -100cm
ff = Vitesse du vent
fx = gusts
dd = Direction du vent
ppp = reduced air pressure
vv = visibility
rr = Quantités de précipitations

stations d'obs. à proximité